Tracking 19846 objects as of 19-Sep-2019
HD Live streaming from Space Station
objects crossing your sky now

METEOR 1-25

Track METEOR 1-25 now!
10-day predictions
METEOR 1-25 is classified as:


NORAD ID: 8845
Int'l Code: 1976-043A
Perigee: 832.1 km
Apogee: 890.9 km
Inclination: 81.3 °
Period: 102.0 minutes
Semi major axis: 7232 km
RCS: 4.2593 m2 (large)
Launch date: May 15, 1976
Source: Commonwealth of Independent States (former USSR) (CIS)
Launch site: PLESETSK MISSILE AND SPACE COMPLEX (PKMTR)
aabbcc
Your satellite tracking list
Your tracking list is empty




NASA's NSSDC Master Catalog

Two Line Element Set (TLE):
1  8845U 76043A   19261.94215220 -.00000071 +00000-0 -46168-4 0  9998
2  8845 081.2632 194.6792 0040667 085.1556 275.4257 14.11475535377409
Source of the keplerian elements: AFSPC